Location: Dackenheim
(49.5215°N, 8.1854°E)
Time: 17:33:34
(UTC+00:00)

Cosmos 1766 Rocket - Pass Details

Date: 19 May 2025
Orbit: 598 x 627 km, 82.5° (Epoch: 16 June)

Event Time Altitude Azimuth Distance (km) Brightness Sun altitude
Rises 21:53:54 0° 348° (NNW) 2,908 8.6 -17.7°
Reaches altitude 10° 21:56:09 10° 347° (NNW) 1,993 7.4 -17.8°
Maximum altitude 22:00:32 74° 263° (W) 643 3.6 -18.1°
Enters shadow 22:02:14 36° 186° (S) 968 4.1 -18.2°
